Weather History for Zephyrhills, FL

Change the Weather History Date:

Thursday, February 21, 2013

  Actual Average (KPCM) Record (KPCM)
Temperature  
Mean Temperature 68 °F -  
Max Temperature 82 °F 76 °F 88 °F (1945)
Min Temperature 53 °F 51 °F 31 °F (1958)
Cooling Degree Days 2    
Growing Degree Days 18 (Base 50)    
Moisture  
Dew Point 56 °F    
Average Humidity 74    
Maximum Humidity 100    
Minimum Humidity 35    
Precipitation  
Precipitation 0.00 in - - ()
Sea Level Pressure  
Sea Level Pressure 30.07 in    
Wind  
Wind Speed 2 mph (ESE)    
Max Wind Speed 10 mph    
Max Gust Speed -    
Visibility 10 miles    
Events      
Averages and records for this station are not official NWS values.
T = Trace of Precipitation, MM = Missing Value Source: NWS Daily Summary

Daily Weather History Graph

Daily Weather History Graph

Search for Another Location

Airport:

Trip Planner

Search our weather history database for the weather conditions in past years. The results will help you decide how hot, cold, wet, or windy it might be!

Date:

Astronomy

Feb. 21, 2013 Rise Set
Actual Time 7:00 AM EST 6:23 PM EST
Civil Twilight 6:37 AM EST 6:47 PM EST
Nautical Twilight 6:09 AM EST 7:15 PM EST
Astronomical Twilight 5:42 AM EST 7:42 PM EST
Moon 2:49 PM EST 3:51 AM EST
Length of Visible Light 12h 10m
Length of Day
11h 22m
Waxing Gibbous, 83% of the Moon is Illuminated
Feb 21
Waxing Gibbous
Feb 25
Full
Mar 4
Last Quarter
Mar 11
New
Mar 19
First Quarter

Hourly Weather History & Observations

Time (EST) Temp. Heat Index Dew Point Humidity Pressure Visibility Wind Dir Wind Speed Gust Speed Precip Events Conditions
12:15 AM 55.4 °F - 53.6 °F 94% 30.10 in 10.0 mi Calm Calm - N/A   Clear
12:35 AM 53.6 °F - 53.6 °F 100% 30.10 in 10.0 mi Calm Calm - N/A   Clear
12:55 AM 53.6 °F - 53.6 °F 100% 30.10 in 10.0 mi Calm Calm - N/A   Clear
1:15 AM 53.6 °F - 53.6 °F 100% 30.10 in 10.0 mi North 3.5 mph - N/A   Clear
1:35 AM 53.6 °F - 53.6 °F 100% 30.09 in 10.0 mi Calm Calm - N/A   Clear
1:55 AM 53.6 °F - 53.6 °F 100% 30.09 in 10.0 mi Calm Calm - N/A   Clear
2:15 AM 53.6 °F - 53.6 °F 100% 30.08 in 10.0 mi Calm Calm - N/A   Clear
2:35 AM 53.6 °F - 53.6 °F 100% 30.08 in 10.0 mi Calm Calm - N/A   Clear
2:55 AM 53.6 °F - 53.6 °F 100% 30.08 in 10.0 mi Calm Calm - N/A   Mostly Cloudy
3:15 AM 53.6 °F - 53.6 °F 100% 30.08 in 10.0 mi North 3.5 mph - N/A   Overcast
3:35 AM 53.6 °F - 53.6 °F 100% 30.07 in 10.0 mi Calm Calm - N/A   Overcast
3:55 AM 53.6 °F - 53.6 °F 100% 30.06 in 10.0 mi Calm Calm - N/A   Overcast
4:15 AM 53.6 °F - 53.6 °F 100% 30.06 in 10.0 mi Calm Calm - N/A   Overcast
4:35 AM 55.4 °F - 53.6 °F 94% 30.07 in 10.0 mi NE 3.5 mph - N/A   Mostly Cloudy
4:55 AM 53.6 °F - 53.6 °F 100% 30.08 in 10.0 mi North 4.6 mph - N/A   Scattered Clouds
5:15 AM 53.6 °F - 53.6 °F 100% 30.08 in 10.0 mi Calm Calm - N/A   Scattered Clouds
5:35 AM 53.6 °F - 53.6 °F 100% 30.08 in 10.0 mi Calm Calm - N/A   Overcast
5:55 AM 53.6 °F - 53.6 °F 100% 30.08 in 10.0 mi NNE 3.5 mph - N/A   Mostly Cloudy
6:15 AM 53.6 °F - 53.6 °F 100% 30.08 in 10.0 mi Calm Calm - N/A   Scattered Clouds
6:55 AM 53.6 °F - 53.6 °F 100% 30.10 in 10.0 mi Calm Calm - N/A   Clear
7:15 AM 53.6 °F - 53.6 °F 100% 30.09 in 10.0 mi Calm Calm - N/A   Mostly Cloudy
7:35 AM 53.6 °F - 53.6 °F 100% 30.11 in 10.0 mi Calm Calm - N/A   Mostly Cloudy
7:55 AM 55.4 °F - 55.4 °F 100% 30.12 in 10.0 mi Calm Calm - N/A   Mostly Cloudy
8:15 AM 57.2 °F - 55.4 °F 94% 30.13 in 10.0 mi Calm Calm - N/A   Overcast
8:35 AM 60.8 °F - 57.2 °F 88% 30.13 in 10.0 mi East 3.5 mph - N/A   Mostly Cloudy
8:55 AM 64.4 °F - 59.0 °F 83% 30.13 in 10.0 mi East 4.6 mph - N/A   Clear
9:15 AM 68.0 °F - 59.0 °F 73% 30.14 in 10.0 mi East 4.6 mph - N/A   Clear
9:35 AM 69.8 °F - 59.0 °F 68% 30.13 in 10.0 mi East 5.8 mph - N/A   Clear
9:55 AM 71.6 °F - 59.0 °F 64% 30.14 in 10.0 mi East 4.6 mph - N/A   Clear
10:15 AM 73.4 °F - 60.8 °F 65% 30.14 in 10.0 mi East 4.6 mph - N/A   Clear
10:35 AM 75.2 °F - 59.0 °F 57% 30.13 in 10.0 mi East 6.9 mph - N/A   Clear
10:55 AM 75.2 °F - 59.0 °F 57% 30.13 in 10.0 mi Calm Calm - N/A   Scattered Clouds
11:15 AM 77.0 °F - 59.0 °F 54% 30.13 in 10.0 mi ESE 5.8 mph - N/A   Scattered Clouds
11:35 AM 78.8 °F - 57.2 °F 47% 30.13 in 10.0 mi SSE 6.9 mph - N/A   Scattered Clouds
11:55 AM 77.0 °F - 59.0 °F 54% 30.11 in 10.0 mi Calm Calm - N/A   Mostly Cloudy
12:15 PM 78.8 °F - 55.4 °F 44% 30.10 in 10.0 mi SSE 6.9 mph - N/A   Scattered Clouds
12:35 PM 78.8 °F - 57.2 °F 47% 30.10 in 10.0 mi East 4.6 mph - N/A   Scattered Clouds
12:55 PM 78.8 °F - 55.4 °F 44% 30.09 in 10.0 mi ESE 5.8 mph - N/A   Scattered Clouds
1:15 PM 78.8 °F - 55.4 °F 44% 30.08 in 10.0 mi SSE 6.9 mph - N/A   Mostly Cloudy
1:35 PM 78.8 °F - 55.4 °F 44% 30.07 in 10.0 mi SE 9.2 mph - N/A   Mostly Cloudy
1:55 PM 80.6 °F 80.3 °F 53.6 °F 39% 30.06 in 10.0 mi South 5.8 mph - N/A   Mostly Cloudy
2:15 PM 82.4 °F - 51.8 °F 35% 30.05 in 10.0 mi South 4.6 mph - N/A   Scattered Clouds
2:35 PM 82.4 °F - 51.8 °F 35% 30.05 in 10.0 mi SE 6.9 mph - N/A   Scattered Clouds
2:55 PM 82.4 °F - 51.8 °F 35% 30.03 in 10.0 mi South 5.8 mph - N/A   Mostly Cloudy
3:15 PM 82.4 °F - 51.8 °F 35% 30.03 in 10.0 mi SSE 8.1 mph - N/A   Scattered Clouds
3:55 PM 82.4 °F - 51.8 °F 35% 30.02 in 10.0 mi SSE 8.1 mph - N/A   Clear
4:15 PM 82.4 °F - 51.8 °F 35% 30.02 in 10.0 mi SSE 6.9 mph - N/A   Clear
4:35 PM 82.4 °F - 51.8 °F 35% 30.02 in 10.0 mi SE 8.1 mph - N/A   Scattered Clouds
4:55 PM 82.4 °F - 51.8 °F 35% 30.01 in 10.0 mi SE 10.4 mph - N/A   Scattered Clouds
5:15 PM 80.6 °F - 51.8 °F 37% 30.01 in 10.0 mi SE 6.9 mph - N/A   Scattered Clouds
5:35 PM 78.8 °F - 53.6 °F 42% 30.01 in 10.0 mi SE 3.5 mph - N/A   Clear
5:55 PM 77.0 °F - 53.6 °F 44% 30.02 in 10.0 mi Calm Calm - N/A   Clear
6:15 PM 77.0 °F - 53.6 °F 44% 30.02 in 10.0 mi Calm Calm - N/A   Clear
6:35 PM 73.4 °F - 55.4 °F 53% 30.02 in 10.0 mi Calm Calm - N/A   Clear
6:55 PM 71.6 °F - 59.0 °F 64% 30.03 in 10.0 mi Calm Calm - N/A   Clear
7:15 PM 71.6 °F - 57.2 °F 60% 30.03 in 10.0 mi South 3.5 mph - N/A   Scattered Clouds
7:35 PM 69.8 °F - 59.0 °F 68% 30.04 in 10.0 mi Calm Calm - N/A   Scattered Clouds
7:55 PM 69.8 °F - 59.0 °F 68% 30.05 in 10.0 mi Calm Calm - N/A   Scattered Clouds
8:15 PM 69.8 °F - 59.0 °F 68% 30.05 in 10.0 mi Calm Calm - N/A   Mostly Cloudy
8:35 PM 68.0 °F - 59.0 °F 73% 30.06 in 10.0 mi Calm Calm - N/A   Mostly Cloudy
8:55 PM 68.0 °F - 60.8 °F 78% 30.05 in 10.0 mi Calm Calm - N/A   Scattered Clouds
9:15 PM 64.4 °F - 60.8 °F 88% 30.05 in 10.0 mi Calm Calm - N/A   Scattered Clouds
9:35 PM 64.4 °F - 60.8 °F 88% 30.06 in 10.0 mi Calm Calm - N/A   Clear
9:55 PM 62.6 °F - 59.0 °F 88% 30.06 in 10.0 mi Calm Calm - N/A   Clear
10:15 PM 62.6 °F - 60.8 °F 94% 30.06 in 10.0 mi Calm Calm - N/A   Clear
10:35 PM 62.6 °F - 60.8 °F 94% 30.07 in 10.0 mi Calm Calm - N/A   Clear
10:55 PM 60.8 °F - 59.0 °F 94% 30.07 in 10.0 mi East 3.5 mph - N/A   Scattered Clouds
11:15 PM 62.6 °F - 60.8 °F 94% 30.07 in 10.0 mi Calm Calm - N/A   Scattered Clouds
11:35 PM 62.6 °F - 60.8 °F 94% 30.07 in 10.0 mi Calm Calm - N/A   Scattered Clouds
11:55 PM 62.6 °F - 60.8 °F 94% 30.07 in 10.0 mi Calm Calm - N/A   Mostly Cloudy